sat.trackr.live / text

‹ back to catalog

STARLINK-5698

NORAD 55623 · 2023-020BG

PAYLOAD ACTIVE UNKNOWN

§ Identity

Operator
Country
US
Launch date
2023-02-12
Launch site
AFETR
Launch vehicle
Mass (kg)
RCS (m²)

Purposes: comms

External: N2YO · Heavens-Above · Gunter

§ Orbital elements

Epoch: 2026-09-20T21:36:30.285792Z

Period
94.27 min
Inclination
43.0039°
Eccentricity
0.0001198
Mean motion
15.27575275 rev/d
Perigee alt
482.2 km
Apogee alt
483.9 km
Semi-major
6,861.2 km
B*
3.5323e-6
RAAN
331.8321°
Arg perigee
279.3708°
Mean anomaly
80.7008°
Rev number
2,231

§ Raw data

STARLINK-56981 55623U 23020BG  26263.90035053 -.00000165  00000+0  35323-5 0  99952 55623  43.0039 331.8321 0001198 279.3708  80.7008 15.27575275 22315

JSON: /api/v1/satellites/55623 · /tle

For live sub-satellite position, see the globe view (requires WebGL).

§ Visibility from observer

Set your observer location to see the next 7 days of passes ≥ 10°. The values pass through the URL so the page stays shareable.

No JS? Fill the form by hand. The geolocation button needs JavaScript.